Regional Weather Roundup
Issued by NWS

Home | Current Version | Previous Version | Graphics & Text | Print | Product List | Glossary On
Versions: 1 2 3 4 5 6 7 8 9 10 11 12 13 14 15 16 17 18 19 20 21 22 23 24 25 26 27 28 29 30 31 32 33 34 35 36 37 38 39 40 41 42 43 44 45 46 47 48 49 50
000
ASUS43 KBIS 030002
RWRND

NORTH DAKOTA REGIONAL WEATHER ROUNDUP
NATIONAL WEATHER SERVICE BISMARCK ND
700 PM CDT WED SEP 02 2015

NOTE: "FAIR" INDICATES FEW OR NO CLOUDS BELOW 12,000 FEET WITH NO
SIGNIFICANT WEATHER AND/OR OBSTRUCTIONS TO VISIBILITY.


NDZ001>003-009>011-017-030100-
NORTHWEST NORTH DAKOTA

CITY           SKY/WX    TMP DP  RH WIND       PRES   REMARKS
WILLISTON      PTSUNNY   96  45  17 CALM      29.63S HX  92
6HR MIN TEMP:  91; 6HR MAX TEMP: 100;

MINOT          SUNNY     91  60  35 SE13      29.67F HX  90
MINOT AFB      SUNNY     93  62  35 SE13      29.67S HX  93
$$

NDZ018>021-031>035-040>046-030100-
SOUTHWEST NORTH DAKOTA

CITY           SKY/WX    TMP DP  RH WIND       PRES   REMARKS
BISMARCK       SUNNY     90  63  40 SE10      29.71S HX  91
6HR MIN TEMP:  82; 6HR MAX TEMP:  94;

DICKINSON      SUNNY     94  45  18 S12       29.70R HX  90
GARRISON         N/A     88  62  41 SE8       29.70S
6HR MIN TEMP:  86; 6HR MAX TEMP:  95;

HETTINGER ARPT SUNNY     93  51  23 SE8       29.74S HX  90
$$

NDZ004>008-012>016-024-026-027-054-030100-
NORTHEAST NORTH DAKOTA

CITY           SKY/WX    TMP DP  RH WIND       PRES   REMARKS
GRAND FORKS    MOSUNNY   86  63  45 S14       29.76S
GRND FRKS AFB  SUNNY     85  65  49 S10       29.77S
DEVILS LAKE    SUNNY     82  66  57 SE10      29.75S
$$

NDZ022-023-025-028>030-036>039-047>053-030100-
SOUTHEAST NORTH DAKOTA

CITY           SKY/WX    TMP DP  RH WIND       PRES   REMARKS
FARGO          SUNNY     85  67  54 SE12      29.78S
6HR MIN TEMP:  85; 6HR MAX TEMP:  90;

JAMESTOWN      SUNNY     84  70  62 SE13      29.75S
$$




USA.gov is the U.S. government's official web portal to all federal, state and local government web resources and services.